Location: *
(41.2211°N, 88.9981°W)
Time: 18:28:41
(UTC+00:00)

Daily predictions for brighter satellites

Satellite Brightness Start Highest point End
(mag) Time Altitude Azimuth Time Altitude Azimuth Time Altitude Azimuth
Cosmos 371 Rocket 3.9 12:04:35 10° SW 12:08:57 33° WNW 12:13:23 10° N
ADEOS Rocket 3.6 12:02:59 10° SSE 12:09:45 65° ENE 12:15:52 10° N
ALOS 3.0 12:07:16 10° N 12:11:24 31° WNW 12:15:29 10° SW
IRIDIUM 114 4.5 12:06:59 10° N 12:12:13 80° E 12:17:26 10° S
Cosmos 1655 Rocket 4.2 12:07:20 10° NNW 12:13:17 49° W 12:19:14 10° SSW
GEOS 3 Rocket 4.0 12:08:31 10° SSE 12:13:21 44° WSW 12:17:57 11° NW
Meteor 1-5 Rocket 4.4 12:09:09 10° SSW 12:14:56 53° WNW 12:20:36 10° N
Envisat 4.4 12:14:56 10° NNE 12:19:45 42° E 12:24:33 10° S
Okean O Rocket 2.2 12:16:08 10° N 12:20:08 34° WNW 12:24:07 10° SW
Cosmos 1666 2.6 12:17:26 10° S 12:21:14 81° W 12:25:02 10° N
USA 81 4.1 12:15:57 10° N 12:21:16 88° E 12:26:32 10° S
IRIDIUM 103 4.3 12:16:09 10° N 12:21:24 85° W 12:26:36 10° S
Meteor 2-4 Rocket 4.2 12:17:20 10° NNW 12:22:15 35° W 12:27:04 10° SSW
Cosmos 2278 Rocket 3.4 12:20:04 10° S 12:25:27 47° ESE 12:30:53 10° NE
Cosmos 2263 Rocket 4.0 12:26:52 10° NW 12:27:42 10° NW 12:28:32 10° NW
Cosmos 1066 Rocket 4.3 12:23:21 10° N 12:28:53 80° E 12:34:17 10° SSE
Cosmos 1674 Rocket 4.2 12:31:12 10° NNW 12:35:09 35° W 12:39:04 10° SSW
USA 234 4.0 12:30:03 10° NE 12:35:42 32° NNW 12:41:18 10° W
Cosmos 1975 Rocket 3.8 12:33:05 10° N 12:37:31 60° E 12:41:55 10° SSE
Cosmos 1782 Rocket 3.7 12:34:07 10° S 12:38:33 83° E 12:42:58 10° N
Cosmos 405 4.3 12:35:52 10° NW 12:38:39 22° W 12:41:25 10° SW
IRIDIUM 106 4.4 12:34:32 10° N 12:39:40 57° W 12:44:44 10° SSW
ATLAS 3B R/B 2.9 12:34:17 10° SSW 12:41:01 76° ESE 12:47:41 10° NE
Cosmos 1302 Rocket 4.5 12:36:49 10° SW 12:41:45 39° WNW 12:46:44 10° N
NOSS 3-2 (C) 3.4 12:36:50 10° SW 12:42:32 66° NW 12:49:00 10° NNE
NOAA 12 4.3 12:37:41 10° NNE 12:42:57 79° ESE 12:48:10 10° S
Okean-O 2.8 12:40:58 10° NNE 12:45:26 81° ESE 12:49:51 10° S
ATLAS CENTAUR R/B 1.2 12:41:41 10° NW 12:45:48 76° WSW 12:49:35 10° SSE
Cosmos 1833 Rocket 3.7 12:42:04 10° NNW 12:47:29 45° ENE 12:52:52 10° SE
CZ-4B R/B 3.5 22:47:41 10° S 22:53:00 74° WSW 22:58:28 10° NNW
Abrixas rocket 3.2 22:52:28 10° SSW 22:55:11 31° SE 22:57:54 10° ENE
BREEZE-M DEB (TANK) 4.3 22:51:06 10° WSW 22:55:36 79° NNW 23:15:22 10° ENE
Cosmos 1703 Rocket 4.1 22:51:38 10° SSE 22:55:47 39° E 22:59:57 10° NNE
COBE Rocket 4.2 22:53:11 10° NNE 22:57:41 45° E 23:02:14 10° S
Cosmos 1536 2.8 22:54:32 10° N 22:58:32 73° E 23:02:30 10° SSE
Cosmos 614 Rocket 4.2 22:56:22 10° S 23:01:14 48° ESE 23:06:06 10° NNE
CZ-4C R/B 3.8 23:00:19 10° SE 23:02:11 12° ESE 23:04:07 10° E
SMAP 3.2 22:57:47 10° SSE 23:02:15 50° ENE 23:06:46 10° N
STARLINK-43 3.4 22:59:12 10° SW 23:02:52 67° SE 23:06:34 10° ENE
Lacrosse 5 rocket 3.6 23:00:55 10° WNW 23:03:22 15° NNW 23:05:46 10° NNE
Cosmos 2278 Rocket 3.2 22:58:01 10° NNW 23:03:31 52° WSW 23:08:58 10° S
Cosmos 1812 3.8 22:59:47 10° SSW 23:03:31 47° W 23:07:16 10° N
Cosmos 2026 Rocket 4.3 22:58:06 10° SSE 23:03:43 42° E 23:09:21 10° NNE
Cosmos 1263 4.1 23:01:24 10° S 23:04:21 62° E 23:07:24 10° NNE
Cosmos 1500 4.3 23:03:31 10° NNW 23:07:09 48° W 23:10:44 10° SSW
SL-4 R/B 3.7 23:06:30 10° NW 23:09:07 18° N 23:11:52 10° NE
Cosmos 2369 Rocket 3.5 23:09:01 10° N 23:12:58 19° NE 23:16:55 10° E
Okean 1 4.0 23:10:59 10° SSE 23:14:34 33° E 23:18:08 10° NNE
ALOS 4.4 23:10:39 10° SSW 23:14:47 32° W 23:18:58 10° NNW
Cosmos 1174 4.3 23:10:09 10° SW 23:15:20 77° WNW 23:19:26 10° NNE
CORIOLIS 4.2 23:10:44 10° SSE 23:16:05 60° ENE 23:21:26 10° N
Okean O Rocket 3.2 23:12:22 10° SSW 23:16:24 39° W 23:20:29 10° NNW
SL-16 R/B 2.2 23:12:34 10° SSW 23:18:14 79° ESE 23:23:57 10° NNE
Feng Yun 1-1 Rocket 4.1 23:17:15 10° SSE 23:22:37 81° ENE 23:28:03 10° NNW
STARLINK-80 3.7 23:19:21 10° SW 23:23:04 55° SE 23:25:59 16° ENE
USA 215 3.6 23:17:10 10° NE 23:23:37 62° NW 23:30:01 10° WSW
Okean 1-7 3.0 23:19:56 10° S 23:24:14 68° E 23:28:36 10° NNE
Cosmos 2242 Rocket 4.4 23:20:37 10° SSW 23:25:05 56° W 23:29:38 10° N
Cosmos 2237 Rocket 3.6 23:20:38 10° WSW 23:25:49 35° WNW 23:31:02 10° N
Cosmos 1140 Rocket 3.6 23:23:12 10° S 23:28:11 55° ESE 23:33:13 10° NNE
Cosmos 1908 Rocket 3.8 23:25:23 10° NNW 23:29:46 74° W 23:34:05 10° S
Envisat 3.1 23:29:17 10° SSE 23:34:13 55° ENE 23:39:12 10° N
Cosmos 1943 Rocket 2.9 23:29:44 10° N 23:34:44 31° ENE 23:39:39 10° ESE
CZ-4 R/B 2.2 23:32:55 10° SE 23:36:08 25° ENE 23:39:20 10° NNE
Cosmos 1023 Rocket 4.4 23:31:55 10° S 23:36:57 69° ESE 23:42:03 10° NNE
H-2A R/B 2.9 23:33:25 10° S 23:37:05 70° W 23:40:46 10° NNW
Cosmos 1441 Rocket 3.2 23:34:17 10° NNW 23:38:04 82° W 23:41:48 10° S
COSMO-SKYMED 1 3.0 23:34:23 10° NNE 23:38:29 40° E 23:42:33 10° SSE
YAOGAN 1 3.5 23:35:57 10° ESE 23:39:27 25° ENE 23:42:57 10° NNE
Cosmos 1627 Rocket 4.5 23:35:27 10° S 23:41:34 90° W 23:47:45 10° N
Okean-O 2.5 23:37:57 10° SSE 23:42:20 71° ENE 23:46:46 10° N
Cosmos 407 Rocket 3.7 23:38:05 10° SSW 23:43:16 74° WNW 23:48:34 10° NNE
CSL-04 Rocket 4.2 23:43:45 10° SE 23:48:27 34° ENE 23:53:12 10° N
NOSS 7 (E) 4.3 23:44:42 10° SSW 23:48:33 74° SE 23:50:08 28° NE
Meteor 2-4 Rocket 4.3 23:43:44 10° SSE 23:49:01 36° E 23:53:37 13° NNE
Cosmos 1666 4.4 23:47:30 10° NNW 23:50:56 35° W 23:54:20 10° SSW
Cosmos 921 Rocket 3.5 23:48:12 10° NNW 23:52:29 63° WSW 23:56:49 10° S
Cosmos 1975 2.9 23:48:46 10° N 23:52:41 52° E 23:56:36 10° SSE
Gbstr 26 Del rocket 4.4 23:46:20 10° SSW 23:53:24 51° SE 23:57:00 24° ENE
Okean 3 3.7 23:50:01 10° SSE 23:53:58 43° E 23:56:11 23° NE
BREEZE-M DEB (TANK) 2.5 23:50:31 10° WNW 23:54:34 46° N 23:55:24 35° NE
Cosmos 1515 4.0 23:52:19 10° SSE 23:55:54 42° E 23:57:08 31° NE
